Вернуться в каталог

CZ-6A DEB

АктивенPO
NORAD 61357·DEBRIS·🇨🇳 China

Запущен Aug 6, 2024 с Taiyuan Satellite Launch Center

Loading…

Ближайшие Пролёты (ближайшие 24 часа)

TLE

СвежийSource: Space-Track

Эпоха: Sep 14, 2026, 08:55 UTC

1 61357U 24140VW  26257.37203303  .00001775  00000-0  71672-3 0  9992
2 61357  88.6834 235.5339 0101609 181.0654 179.0339 14.24738313105276

Отслеживайте CZ-6A DEB в реальном времени с AllMySat

Download on the App Store